Regional Weather Roundup
Issued by NWS

Home | Current Version | Previous Version | Graphics & Text | Print | Product List | Glossary On
Versions: 1 2 3 4 5 6 7 8 9 10 11 12 13 14 15 16 17 18 19 20 21 22 23 24 25 26 27 28 29 30 31 32 33 34 35 36 37 38 39 40 41 42 43 44 45 46 47 48 49 50
000
ASUS43 KDTX 060610
RWRMI
MICHIGAN HOURLY REGIONAL WEATHER ROUNDUP
NATIONAL WEATHER SERVICE DETROIT/PONTIAC MI
200 AM EDT MON JUL 06 2015

NOTE: "FAIR" INDICATES FEW OR NO CLOUDS BELOW 12,000 FEET WITH NO
SIGNIFICANT WEATHER AND/OR OBSTRUCTION TO VISIBILITY.

MIZ047>049-052>055-059>063-066>070-074>076-081>083-060700-
SOUTHEAST LOWER MICHIGAN

CITY           SKY/WX    TMP DP  RH WIND       PRES   REMARKS
ADRIAN         CLEAR     60  58  92 CALM      30.07F
6HR MIN TEMP:  60; 6HR MAX TEMP:  74;

ALMA           CLEAR     66  60  81 S7        30.04S
ANN ARBOR      CLEAR     53  53 100 CALM      30.06F FOG
BAD AXE        CLEAR     63  54  73 CALM      30.07S
CARO           CLEAR     58  57  96 CALM      30.05F
DETROIT CITY   CLEAR     65  56  72 SE3       30.07F
6HR MIN TEMP:  64; 6HR MAX TEMP:  77;

DETROIT        PTCLDY    65  59  81 CALM      30.08S
6HR MIN TEMP:  65; 6HR MAX TEMP:  76; 6HR PCP: TRACE;

FLINT          CLEAR     64  55  72 S3        30.06F
6HR MIN TEMP:  61; 6HR MAX TEMP:  81;

GROSSE ILE     PTCLDY    66  63  88 SE3       30.06F
HILLSDALE      CLEAR     64  60  86 CALM      30.08R
6HR MIN TEMP:  64; 6HR MAX TEMP:  76;

HOWELL         CLEAR     61  57  85 SE5       30.07F
6HR MIN TEMP:  61; 6HR MAX TEMP:  78;


CITY           SKY/WX    TMP DP  RH WIND       PRES   REMARKS
JACKSON        CLEAR     61  57  87 CALM      30.07S
6HR MIN TEMP:  61; 6HR MAX TEMP:  77;

LAMBERTVILLE     N/A     61  58  91 CALM      30.07F FOG
6HR MIN TEMP:  61; 6HR MAX TEMP:  75;

LANSING        CLEAR     66  57  72 S8        30.06F
6HR MIN TEMP:  66; 6HR MAX TEMP:  79;

LAPEER         FAIR      55  53  92 CALM      30.07S
MASON          CLEAR     60  56  88 CALM      30.07S
MONROE         PTCLDY    60  59  99 CALM      30.06F FOG
MT. CLEMENS    CLEAR     62  59  90 S2        30.05F
6HR MIN TEMP:  60; 6HR MAX TEMP:  71;

PONTIAC        CLEAR     64  56  75 S3        30.06F
6HR MIN TEMP:  63; 6HR MAX TEMP:  77;

PORT HOPE        N/A     69  55  60 S5        30.03F
6HR MIN TEMP:  66; 6HR MAX TEMP:  72;

PORT HURON     CLEAR     57  57 100 CALM      30.08S FOG
TRI CITIES     CLEAR     69  58  67 S9        30.04F
6HR MIN TEMP:  69; 6HR MAX TEMP:  81;

MIDLAND        FAIR      68  59  73 SE5       30.03S
TROY           CLEAR     65  55  70 CALM      30.08F
SAGINAW HB     CLEAR     64  55  72 S7        30.04S
$$
MIZ043>046-050>051-056>058-064>065-071>073-077>080-060700-
SOUTHWEST LOWER MICHIGAN

CITY           SKY/WX    TMP DP  RH WIND       PRES   REMARKS
BATTLE CREEK   CLEAR     67  60  78 S8        30.05F
6HR MIN TEMP:  67; 6HR MAX TEMP:  80;

BENTON HARBOR  CLEAR     65  60  84 SE6       30.02S
6HR MIN TEMP:  61; 6HR MAX TEMP:  78;

BIG RAPIDS     CLEAR     61  58  89 CALM      30.02F FOG
6HR MIN TEMP:  61; 6HR MAX TEMP:  78;

COLDWATER      CLEAR     64  59  81 SE3       30.06F
6HR MIN TEMP:  64; 6HR MAX TEMP:  78;

FREMONT        FAIR      63  60  91 CALM      30.01S
HOLLAND        CLEAR     64  60  87 S5        30.03R
6HR MIN TEMP:  63; 6HR MAX TEMP:  78;

GRAND RAPIDS   CLEAR     65  61  87 S6        30.03F
6HR MIN TEMP:  65; 6HR MAX TEMP:  79;

IONIA          FAIR      65  60  83 S8        30.03F
KALAMAZOO      CLEAR     69  59  70 S5        30.05S
6HR MIN TEMP:  69; 6HR MAX TEMP:  80;

LUDINGTON      CLEAR     71  62  72 CALM      29.99S
6HR MIN TEMP:  66; 6HR MAX TEMP:  76;

MARSHALL       CLEAR     65  58  80 SE3       30.06S
MOUNT PLEASANT CLEAR     68  61  78 S5        30.03S
6HR MIN TEMP:  67; 6HR MAX TEMP:  79;

MUSKEGON       CLEAR     65  59  81 SE3       30.01S
6HR MIN TEMP:  64; 6HR MAX TEMP:  76;

SOUTH HAVEN    CLEAR     67  61  81 S3        30.02S
$$
MIZ016>042-060700-
NORTHERN LOWER MICHIGAN

CITY           SKY/WX    TMP DP  RH WIND       PRES   REMARKS
ALPENA         CLEAR     66  60  81 S7        30.01F
6HR MIN TEMP:  59; 6HR MAX TEMP:  72; 6HR PCP: TRACE;

BEAVER ISLAND  PTCLDY    69  57  66 SW10G16   29.95F
6HR MIN TEMP:  67; 6HR MAX TEMP:  72;

BELLAIRE       CLEAR     64  60  86 CALM      29.98S
6HR MIN TEMP:  61; 6HR MAX TEMP:  81;

CADILLAC       CLEAR     66  59  80 S5        30.02F
CHARLEVOIX     CLEAR     66  62  86 SE5       30.00S
FRANKFORT      CLEAR     70  56  59 SE3       29.98R
GAYLORD        CLEAR     66  62  87 SW6       30.02S
6HR MIN TEMP:  66; 6HR MAX TEMP:  79;

GRAYLING       CLEAR     61  60  94 S3        30.03S
HARBOR SPRINGS CLEAR     61  59  92 CALM      29.98S
HOUGHTON LAKE  CLEAR     66  61  84 S3        30.03F
6HR MIN TEMP:  66; 6HR MAX TEMP:  77;

MANISTEE       CLEAR     63  55  77 CALM      30.00R
OSCODA         CLEAR     59  57  94 CALM      30.01F
PELLSTON       CLEAR     58  57  97 CALM      29.98S
6HR MIN TEMP:  58; 6HR MAX TEMP:  79;

ROGERS CITY    CLEAR     67  62  83 S12       30.00F
TRAVERSE CITY  CLEAR     67  58  72 W3        29.97S
6HR MIN TEMP:  67; 6HR MAX TEMP:  82;

$$
MIZ007>008-015-060700-
EASTERN UPPER MICHIGAN

CITY           SKY/WX    TMP DP  RH WIND       PRES   REMARKS
KINROSS        PTCLDY    61  57  88 SE6       29.97R
6HR MIN TEMP:  61; 6HR MAX TEMP:  75;

MACKINAC ISLAN CLEAR     65  60  85 S8        29.97S
6HR MIN TEMP:  63; 6HR MAX TEMP:  71;

NEWBERRY       PTCLDY    61  57  86 S9        29.93F
6HR MIN TEMP:  60; 6HR MAX TEMP:  71;

S. S. MARIE    MOCLDY    62  56  80 CALM      29.97R
6HR MIN TEMP:  62; 6HR MAX TEMP:  75;

MUNISING         N/A     67  59  75 S9        29.89S
6HR MIN TEMP:  67; 6HR MAX TEMP:  77;

$$
MIZ004>006-011>014-085-060700-
CENTRAL UPPER MICHIGAN

CITY           SKY/WX    TMP DP  RH WIND       PRES   REMARKS
MANISTIQUE     CLEAR     59  56  89 SW7       29.93F
ESCANABA       PTCLDY    66  63  88 SW8       29.92R
6HR MIN TEMP:  66; 6HR MAX TEMP:  72;

MENOMINEE      PTCLDY    70  61  73 SW9       29.92S
6HR MIN TEMP:  68; 6HR MAX TEMP:  75;

SAWYER-GWINN   MOCLDY    67  61  82 SW9       29.91R
$$
MIZ001>003-009>011-084-060700-
WESTERN UPPER MICHIGAN

CITY           SKY/WX    TMP DP  RH WIND       PRES   REMARKS
IRON MOUNTAIN  MOCLDY    67  62  84 S6        29.91S
6HR MIN TEMP:  66; 6HR MAX TEMP:  79;

HOUGHTON       CLOUDY    74  61  63 SW10      29.80F
6HR MIN TEMP:  74; 6HR MAX TEMP:  80;

COPPER HARBOR    N/A     74  60  61 W9G20     29.77F
6HR MIN TEMP:  70; 6HR MAX TEMP:  79;

IRONWOOD       CLOUDY    72  64  78 S13G23    29.81R
6HR MIN TEMP:  72; 6HR MAX TEMP:  79;

$$

ABBREVIATIONS USED IN REMARKS
   TC - TEMPERATURE IN CELSIUS
  WCI - WIND CHILL INDEX
   HX - HEAT INDEX
  VSB - VISIBILITY




USA.gov is the U.S. government's official web portal to all federal, state and local government web resources and services.